Location: Asheville, NC
(35.6000°N, 82.5500°W)
Time: 23:34:44
(UTC-04:00)

AO-7 - Pass Details

Date: 10 January 2018
Orbit: 1439 x 1459 km, 101.7° (Epoch: 25 April)

Event Time Altitude Azimuth Distance (km) Brightness Sun altitude
Rises 04:57:18 0° 10° (N) 4,571 ? -32.5°
Reaches altitude 10° 05:00:11 10° 6° (N) 3,588 ? -31.9°
Enters shadow 05:05:30 39° 340° (NNW) 2,069 ? -30.8°
